This is the latest recevied weather packets stored in our database for station/object KW4UJ. If no packets are shown the sender has not sent any weather packets the latest 10 day(s).
| Time | Temp. | Humidity | Pressure | Rain* | Wind** | Luminosity | Snow |
|---|---|---|---|---|---|---|---|
| 1777237124 | 13.89° C | 69% | 1019 hPa | 0 mm | - | 167 W/m² | - |
| 1777236822 | 13.89° C | 68% | 1019.1 hPa | 0 mm | - | 274 W/m² | - |
| 1777236521 | 13.89° C | 68% | 1019 hPa | 0 mm | - | 247 W/m² | - |
| 1777236218 | 13.89° C | 67% | 1018.9 hPa | 0 mm | - | 200 W/m² | - |
| 1777235913 | 13.33° C | 69% | 1019.1 hPa | 0 mm | - | 305 W/m² | - |
| 1777235610 | 12.78° C | 70% | 1019.2 hPa | 0 mm | - | 201 W/m² | - |
| 1777235307 | 13.33° C | 69% | 1019.1 hPa | 0 mm | - | 171 W/m² | - |
| 1777235003 | 13.33° C | 69% | 1019.2 hPa | 0 mm | - | 329 W/m² | - |
| 1777234700 | 13.33° C | 69% | 1019 hPa | 0 mm | - | 255 W/m² | - |
| 1777234395 | 13.33° C | 69% | 1019.2 hPa | 0 mm | - | 458 W/m² | - |
| 1777234090 | 13.89° C | 68% | 1019.2 hPa | 0 mm | - | 263 W/m² | - |
| 1777233786 | 13.89° C | 68% | 1019.1 hPa | 0 mm | - | 594 W/m² | - |
| 1777233483 | 13.33° C | 70% | 1019.1 hPa | 0 mm | - | 480 W/m² | - |
| 1777233183 | 12.22° C | 72% | 1019.3 hPa | 0 mm | - | 376 W/m² | - |
| 1777232877 | 12.22° C | 72% | 1019.4 hPa | 0 mm | - | 271 W/m² | - |
| 1777232576 | 12.22° C | 73% | 1019.2 hPa | 0 mm | - | 201 W/m² | - |
| 1777232275 | 12.22° C | 73% | 1019.3 hPa | 0 mm | - | 188 W/m² | - |
| 1777231970 | 12.22° C | 72% | 1019.5 hPa | 0 mm | - | 237 W/m² | - |
| 1777231668 | 11.67° C | 73% | 1019.3 hPa | 0 mm | - | 169 W/m² | - |
| 1777231364 | 11.67° C | 73% | 1019.1 hPa | 0 mm | - | 146 W/m² | - |
| 1777231059 | 12.22° C | 73% | 1019.3 hPa | 0 mm | - | 161 W/m² | - |
| 1777230757 | 11.67° C | 73% | 1019.3 hPa | 0 mm | - | 194 W/m² | - |
| 1777230456 | 11.67° C | 72% | 1019.3 hPa | 0 mm | - | 208 W/m² | - |
| 1777230153 | 11.67° C | 72% | 1019.4 hPa | 0 mm | - | 217 W/m² | - |
| 1777229850 | 11.67° C | 73% | 1019.5 hPa | 0 mm | - | 231 W/m² | - |
* Rain latest hour (hover to see other rain measurements)
** Current wind speed in m/s (hover to see current wind gust speed)